Location: Franzen
(48.6167°N, 15.3833°E)
Time: 08:00:22
(UTC+00:00)

Altair - Pass Details

Date: 01 August 2021
Orbit: 1501 x 1682 km, 47.2° (Epoch: 20 September)

Event Time Altitude Azimuth Distance (km) Brightness Sun altitude
Rises 08:10:42 0° 288° (WNW) 4,640 9.6 43.4°
Reaches altitude 10° 08:14:46 10° 272° (W) 3,655 9.2 44.0°
Maximum altitude 08:20:44 20° 231° (SW) 2,972 9.1 44.9°
Drops below altitude 10° 08:26:46 10° 189° (S) 3,682 9.8 45.7°
Sets 08:30:55 0° 173° (S) 4,685 10.4 46.3°
